Location: Newark
(19.2128°S, 49.7858°W)
Time: 19:45:13
(UTC+00:00)

Envisat - Pass Details

Date: 25 August 2019
Orbit: 764 x 766 km, 98.1° (Epoch: 18 October)

Event Time Altitude Azimuth Distance (km) Brightness Sun altitude
Rises 23:30:46 0° 202° (SSW) 3,247 6.5 -33.9°
Reaches altitude 10° 23:35:30 10° 242° (WSW) 2,311 6.1 -35.0°
Maximum altitude 23:36:14 10° 250° (WSW) 2,289 6.2 -35.2°
Drops below altitude 10° 23:36:57 10° 258° (WSW) 2,308 6.2 -35.4°
Sets 23:41:41 0° 299° (WNW) 3,223 7.0 -36.5°
